DateTimeUTC,F1_A11,F1_S11,BsB_S11,BsG_S11,BsR_S11,BbsB_S11,BbsG_S11,BbsR_S11,BaB_A11,BaG_A11,BaR_A11,Tu_S11,T_S11,Uu_S11,U_S11,P_S11,T1_A11
2021-09-16T11:00:00Z,00000200,21000000,,,,,,,-000.27,-000.20,-000.27,18.1,25.3,,00.0,0653.1,31.1
2021-09-16T11:01:00Z,00000200,21000000,,,,,,,0000.12,0000.24,0000.05,18.1,25.3,,00.0,0653.1,31.0
2021-09-16T11:02:00Z,00000200,21000000,,,,,,,-000.26,-000.07,0000.04,18.1,25.4,,00.0,0653.1,31.0
2021-09-16T11:03:00Z,00000200,61000000,,,,,,,0000.57,-000.10,0000.34,18.1,25.4,,00.0,0653.1,31.0
2021-09-16T11:04:00Z,00000200,41000000,0000.84,0000.73,0000.92,0000.30,-000.05,0000.32,0000.62,0000.63,0000.29,18.2,25.1,,00.0,0654.0,31.0
2021-09-16T11:05:00Z,00000200,01000000,0001.24,0000.79,0000.37,0000.56,0000.22,0000.35,-000.03,0000.29,0000.04,18.3,25.0,,00.0,0654.1,31.0
2021-09-16T11:06:00Z,00000200,01000000,0001.19,0000.93,0000.33,0000.45,0000.07,0000.21,0000.65,0000.31,0000.08,18.2,25.0,,00.0,0654.1,31.0
2021-09-16T11:07:00Z,00000200,01000000,0001.09,0001.15,0000.54,-000.02,-000.05,0000.01,0000.15,0000.26,0000.53,18.2,25.0,,00.0,0654.2,31.0
2021-09-16T11:08:00Z,00000200,01000000,0001.86,0001.09,0000.25,0000.09,-000.02,0000.27,0000.09,0000.30,-000.06,18.2,25.0,,00.0,0654.2,31.0
2021-09-16T11:09:00Z,00000200,01000000,0001.22,0000.90,0000.26,0000.21,-000.07,-000.20,0000.96,0000.59,0000.60,18.1,24.9,,00.0,0654.2,31.0
2021-09-16T11:10:00Z,00000200,01000000,0001.23,0001.21,0000.22,-000.17,0000.07,0000.36,0000.71,0000.56,0000.49,18.1,24.9,,00.0,0654.2,31.0
2021-09-16T11:11:00Z,00000200,01000000,0000.88,0001.07,-000.04,0000.72,0000.32,0000.39,0000.18,0000.09,0000.30,18.2,24.9,,00.0,0654.3,31.0
2021-09-16T11:12:00Z,00000200,01000000,0001.30,0001.19,0000.49,0000.39,0000.06,0000.01,-000.09,0000.02,0000.13,18.3,25.0,,00.0,0654.3,31.0
2021-09-16T11:13:00Z,00000200,01000000,0000.93,0000.88,0000.54,0000.45,0000.26,0000.11,0000.26,0000.54,0000.19,18.4,25.0,,00.0,0654.4,31.1
2021-09-16T11:14:00Z,00000200,01000000,0000.51,0000.56,0000.28,0000.62,0000.11,0000.18,0000.23,-000.12,0000.08,18.5,25.1,,00.0,0654.4,31.1
2021-09-16T11:15:00Z,00000200,01000000,0000.43,0001.14,0000.32,0000.19,-000.04,0000.16,0000.36,0000.31,0000.44,18.6,25.1,,00.0,0654.4,31.1
2021-09-16T11:16:00Z,00000200,01000000,0000.66,0001.21,0000.37,-000.19,0000.35,0000.11,0000.09,0000.44,-000.06,18.6,25.2,,00.0,0654.5,31.1
2021-09-16T11:17:00Z,00000200,01000000,0001.18,0000.84,0000.53,-000.04,-000.03,-000.04,0000.44,0000.46,0000.06,18.6,25.2,,00.0,0654.5,31.1
2021-09-16T11:18:00Z,00000200,01000000,0001.23,0000.98,0000.14,0000.03,0000.24,0000.12,0000.21,-000.32,0000.12,18.6,25.1,,00.0,0654.5,31.0
2021-09-16T11:19:00Z,00000200,01000000,0000.71,0000.75,0000.33,0000.29,0000.23,0000.05,-000.15,0000.70,0000.13,18.5,25.1,,00.0,0654.6,31.0
2021-09-16T11:20:00Z,00000200,01000000,0001.01,0000.60,0000.91,0000.80,0000.19,0000.24,0000.26,-000.27,0000.16,18.5,25.1,,00.0,0654.6,31.0
2021-09-16T11:21:00Z,00000200,01000000,0000.80,0001.25,0000.32,-000.10,0000.07,0000.09,-000.09,-000.23,-000.05,18.4,25.1,,00.0,0654.6,31.0
2021-09-16T11:22:00Z,00000200,01000000,0001.05,0000.95,0000.36,0000.06,0000.52,0000.07,0000.09,0000.14,-000.15,18.4,25.1,,00.0,0654.7,31.0
2021-09-16T11:23:00Z,00000200,01000000,0001.59,0000.71,0000.43,0000.25,0000.35,0000.37,0000.18,0000.08,0000.41,18.4,25.0,,00.0,0654.7,31.0
2021-09-16T11:24:00Z,00000200,01000000,0001.29,0000.74,0000.42,-000.69,0000.25,0000.46,-000.02,0000.28,0000.09,18.3,25.0,,00.0,0654.8,31.0
2021-09-16T11:25:00Z,00000200,01000000,0001.02,0000.78,0000.40,-000.33,0000.47,0000.37,0000.60,0000.53,0000.43,18.3,25.0,,00.0,0654.8,31.0
2021-09-16T11:26:00Z,00000200,01000000,0001.39,0000.70,0000.20,0000.18,0000.13,-000.05,0000.07,-000.10,0000.05,18.4,25.0,,00.0,0654.8,31.0
2021-09-16T11:27:00Z,00000200,01000000,0001.10,0000.69,0000.23,-000.31,0000.22,0000.38,0000.34,0000.07,0000.21,18.5,25.1,,00.0,0654.9,31.1
2021-09-16T11:28:00Z,00000200,01000000,0000.98,0001.01,0000.23,0000.12,0000.08,-000.04,0000.46,0000.70,0000.22,18.6,25.1,,00.0,0654.9,31.1
2021-09-16T11:29:00Z,00000200,01000000,0000.53,0001.32,0000.09,0000.36,0000.46,-000.03,0000.45,0000.35,0000.42,18.6,25.2,,00.0,0654.9,31.1
2021-09-16T11:30:00Z,00000200,01000000,0000.96,0000.59,0000.25,0000.12,0000.09,-000.13,0000.34,0000.45,0000.34,18.7,25.2,,00.0,0655.0,31.1
2021-09-16T11:31:00Z,00000200,01000000,0000.97,0001.15,0000.44,0000.03,0000.24,0000.25,0000.38,0000.22,0000.18,18.7,25.2,,00.0,0655.0,31.1
2021-09-16T11:32:00Z,00000200,01000000,0000.45,0001.08,0000.58,-000.69,0000.11,0000.39,0000.44,0000.18,0000.26,18.7,25.2,,00.0,0655.0,31.1
2021-09-16T11:33:00Z,00000200,01000000,0001.70,0000.79,0000.23,0000.06,0000.23,-000.07,-000.24,0000.01,-000.24,18.7,25.2,,00.0,0655.0,31.1
2021-09-16T11:34:00Z,00000200,01000000,0000.41,0001.02,0000.25,-000.03,-000.11,-000.20,0000.21,0000.38,0000.08,18.6,25.2,,00.0,0655.1,31.1
2021-09-16T11:35:00Z,00000200,01000000,0001.22,0000.86,0000.56,0000.18,0000.30,0000.31,0000.20,0000.03,0000.08,18.6,25.1,,00.0,0655.1,31.0
2021-09-16T11:36:00Z,00000200,01000000,0001.27,0001.06,0000.45,-000.12,0000.24,0000.21,0000.35,0000.35,0000.24,18.5,25.1,,00.0,0655.1,31.0
2021-09-16T11:37:00Z,00000200,01000000,0000.70,0000.84,0000.68,0000.36,0000.10,0000.16,0000.10,0000.20,0000.55,18.5,25.1,,00.0,0655.1,31.0
2021-09-16T11:38:00Z,00000200,01000000,0001.22,0000.62,0000.67,-000.04,0000.17,0000.16,0000.35,0000.06,0000.06,18.5,25.1,,00.0,0655.1,31.0
2021-09-16T11:39:00Z,00000200,01000000,0000.84,0000.99,0000.36,0000.07,-000.18,0000.42,0000.10,0000.27,0000.09,18.4,25.1,,00.0,0655.2,31.0
2021-09-16T11:40:00Z,00000200,01000000,0000.48,0000.55,-000.15,0000.35,0000.16,0000.34,0000.19,0000.36,0000.35,18.4,25.1,,00.0,0655.2,31.0
2021-09-16T11:41:00Z,00000200,01000000,0000.79,0000.77,0000.25,-000.26,0000.08,-000.07,0000.42,-000.14,-000.17,18.5,25.1,,00.0,0655.2,31.0
2021-09-16T11:42:00Z,00000200,01000000,0000.13,0000.56,0000.71,-000.05,0000.37,0000.20,-000.11,0000.12,0000.12,18.5,25.1,,00.0,0655.2,31.0
2021-09-16T11:43:00Z,00000200,01000000,0000.08,0000.57,0000.09,-000.25,0000.28,0000.15,0000.38,0000.05,0000.51,18.5,25.1,,00.0,0655.3,31.0
2021-09-16T11:44:00Z,00000200,01000000,0000.23,0000.54,0000.18,0000.43,-000.16,0000.39,-000.14,0000.28,-000.41,18.6,25.1,,00.0,0655.3,31.0
2021-09-16T11:45:00Z,00000200,01000000,0001.19,0000.57,0000.20,-000.56,-000.03,0000.03,-000.15,-000.29,0000.05,18.5,25.1,,00.0,0655.3,31.0
2021-09-16T11:46:00Z,00000200,01000000,0000.21,0000.52,-000.23,0000.53,-000.12,-000.11,0000.35,0000.35,-000.02,18.5,25.1,,00.0,0655.3,31.0
2021-09-16T11:47:00Z,00000200,01000000,0000.81,0000.27,0000.11,0000.15,0000.14,0000.26,0000.09,0000.30,0000.43,18.5,25.1,,00.0,0655.4,31.0
2021-09-16T11:48:00Z,00000200,01000000,0000.67,0000.45,0000.10,0000.17,0000.29,0000.10,0000.27,-000.16,-000.07,18.4,25.1,,00.0,0655.5,31.0
2021-09-16T11:49:00Z,00000200,01000000,0000.65,0000.59,0000.36,0001.02,0000.24,0000.22,0000.25,0000.47,0000.22,18.4,25.0,,00.0,0655.5,31.0
2021-09-16T11:50:00Z,00000200,01000000,0000.26,0000.47,-000.18,0000.27,0000.10,0000.20,0000.03,0000.13,0000.17,18.4,25.0,,00.0,0655.5,31.0
2021-09-16T11:51:00Z,00000200,01000000,0000.95,0000.71,0000.25,0000.03,0000.13,0000.13,0000.04,0000.09,-000.07,18.4,25.0,,00.0,0655.6,31.0
2021-09-16T11:52:00Z,00000200,01000000,0000.04,0000.47,-000.03,-000.34,-000.03,-000.14,0000.04,-000.47,0000.02,18.3,25.0,,00.0,0655.7,31.0
2021-09-16T11:53:00Z,00000200,01000000,0000.27,0000.58,0000.29,0000.09,-000.06,0000.25,-000.04,0000.22,-000.21,18.3,25.0,,00.0,0655.7,31.0
2021-09-16T11:54:00Z,00000200,01000000,0000.79,0000.54,0000.21,0000.22,0000.25,0000.01,0000.28,0000.57,0000.88,18.3,25.0,,00.0,0655.7,31.0
2021-09-16T11:55:00Z,00000200,01000000,0000.37,0000.67,0000.01,-000.11,0000.24,0000.42,0000.34,-000.03,0000.06,18.3,24.9,,00.0,0655.8,31.0
2021-09-16T11:56:00Z,00000200,01000000,0000.39,0000.61,0000.27,-000.28,-000.12,-000.08,0000.32,0000.69,0000.00,18.4,25.0,,00.0,0655.7,31.0
2021-09-16T11:57:00Z,00000200,41000000,,,,,,,-000.77,-001.17,-000.33,18.5,25.1,,00.0,0655.7,31.1
2021-09-16T11:58:00Z,00000200,61000000,,,,,,,0000.49,0000.37,-000.04,18.2,25.2,,00.0,0654.9,31.0
2021-09-16T11:59:00Z,00000200,21000000,,,,,,,0000.44,0000.21,0000.16,18.2,25.3,,00.0,0654.9,31.0
